Dewpoint
39 38 39 39 36 34 33 33 46 49 55 54 54 53 52 55 53 56 58 57 57 54 55 54 52 56 66 66 66 70 70 72 70 70 71 67 66 70 72 71 70 70 70 73
37 36 38 38 35 33 32 32 43 48 51 51 53 50 50 51 55 59 61 58 58 55 55 55 53 56 63 66 66 71 70 73 70 72 71 69 68 71 71 71 70 70 72 73
26 32 37 36 34 31 30 29 43 44 50 51 53 51 52 52 56 62 61 58 58 56 55 56 53 54 60 65 66 71 71 72 72 71 71 72 73 70 71 71 70 70 72 73
24 24 31 33 32 31 28 29 37 38 40 41 50 45 51 52 54 61 59 57 56 56 55 57 54 54 59 65 66 71 71 71 70 73 70 69 68 68 69 69 70 70 71 74
15 22 20 21 28 30 28 29 29 39 37 35 46 42 46 51 51 55 60 59 57 56 56 57 57 55 57 64 66 70 73 72 68 72 74 71 71 68 71 71 70 71 71 72
5 14 18 19 22 24 28 27 27 32 35 28 34 39 40 49 50 51 56 56 56 56 56 57 58 58 57 62 66 69 73 72 71 72 73 73 68 71 71 71 72 72 71 72
8 7 7 14 16 19 23 25 25 29 30 31 31 28 41 48 49 51 51 54 56 57 57 58 58 60 59 60 64 69 71 72 72 73 73 72 71 72 72 70 71 71 70 71
4 4 6 8 12 16 20 24 24 28 29 31 31 27 38 42 47 51 51 51 55 56 57 58 59 60 60 59 60 67 68 72 71 73 72 73 74 73 73 72 70 71 70 71
-2 4 9 5 6 13 15 20 26 24 30 29 29 28 39 39 47 50 55 59 55 57 57 57 59 60 60 60 60 64 68 70 71 73 72 73 74 73 72 72 71 72 73 72
-6 -6 3 6 6 6 14 21 22 26 23 25 27 32 33 39 36 45 50 51 53 55 55 57 59 60 60 60 60 62 68 68 71 71 71 73 72 74 74 75 71 70 73 74
-6 -4 -5 4 4 6 8 13 21 26 27 24 26 28 35 38 36 37 45 47 50 51 47 52 58 60 61 61 60 61 68 68 71 70 71 72 71 73 73 73 75 74 71 75
17 -6 -2 -5 1 10 8 12 20 26 27 30 29 28 36 33 35 36 37 40 46 46 51 56 57 60 61 61 62 60 68 69 70 71 71 71 73 71 72 73 73 76 72 75
30 16 -2 8 6 2 9 7 13 24 27 27 28 29 35 37 35 41 44 48 51 55 59 61 60 59 60 61 62 64 68 69 70 71 71 72 72 72 71 70 73 74 73 73
36 20 21 13 15 18 19 12 8 17 24 25 28 31 34 34 35 39 44 49 60 62 63 64 65 65 62 65 63 65 66 69 70 71 71 72 72 72 72 71 70 73 75 73
24 24 25 20 16 13 10 8 9 15 20 25 26 35 47 40 36 45 51 59 61 62 63 64 65 66 67 65 66 65 63 68 69 70 70 70 71 72 71 71 71 71 74 73
19 24 28 22 19 16 10 6 17 9 17 18 25 50 51 54 59 59 59 59 60 61 62 64 64 65 66 67 68 67 64 64 68 69 69 69 71 71 71 71 71 72 71 74
21 23 24 20 26 18 16 15 19 15 40 42 42 51 52 56 59 60 60 61 61 61 62 63 64 65 67 66 67 69 69 68 67 68 69 70 70 72 71 71 71 71 72 71
26 31 32 27 29 25 23 42 46 49 50 51 51 53 58 56 57 58 62 60 60 61 61 62 63 63 64 66 67 68 70 70 68 69 69 69 71 71 72 71 70 71 70 72
22 29 27 28 26 22 36 42 41 46 48 51 51 53 55 57 56 56 58 60 60 60 60 61 61 62 64 65 68 69 70 71 71 68 69 71 71 71 71 71 71 70 71 70
21 28 24 26 27 26 42 46 45 48 47 51 51 52 52 56 51 55 58 59 59 60 60 60 60 61 62 63 64 65 68 70 72 70 69 71 71 71 71 71 71 72 71 71
21 27 23 23 27 41 45 46 44 42 46 53 52 53 52 53 55 57 59 59 59 59 59 59 58 58 59 60 60 61 64 66 66 69 71 71 71 72 72 72 72 71 72 72
24 25 23 25 24 33 49 48 46 50 51 52 53 55 55 54 56 56 58 59 58 58 58 57 57 56 57 58 58 59 60 62 63 65 70 72 71 70 72 72 72 73 73 72
31 38 41 43 44 49 50 51 52 53 51 51 51 53 55 54 54 55 55 56 57 57 57 57 56 56 56 56 57 57 59 60 62 64 68 72 73 72 71 71 73 73 73 74
40 40 41 41 43 46 47 50 51 51 49 49 50 51 53 54 55 54 54 55 55 56 56 56 55 55 55 57 57 57 58 59 60 64 67 73 73 74 74 74 73 73 72 73
41 39 39 39 39 44 45 43 43 43 44 44 47 50 51 55 55 53 54 55 56 56 57 56 55 55 55 56 57 58 59 60 60 64 66 71 73 74 74 74 73 73 73 73
38 37 36 37 39 40 41 40 40 41 40 40 39 47 50 54 55 53 54 55 55 55 56 56 55 54 54 54 54 55 57 60 62 63 65 66 69 70 72 73 73 65 63 61
Lifted_Index
4 3 2 2 2 1 1 -0 -2 -2 -2 -1 -0 0 -0 -1 -3 -3 -3 -3 -2 -1 0 1 2 1 0 -0 -1 -2 -2 -2 -2 -2 -3 -2 -2 -3 -3 -3 -3 -3 -4 -5
4 4 3 2 2 1 1 -0 -2 -2 -2 -1 -0 -0 -1 -1 -2 -3 -3 -3 -3 -1 -0 1 1 1 0 -0 -1 -2 -3 -2 -2 -3 -3 -3 -3 -3 -3 -3 -3 -3 -4 -5
5 4 3 2 2 2 1 -0 -1 -2 -2 -1 -1 -1 -1 -1 -2 -3 -3 -3 -3 -2 -0 1 1 1 0 -0 -1 -2 -3 -3 -2 -3 -3 -3 -4 -3 -3 -3 -3 -3 -4 -5
6 6 4 3 2 2 2 1 -1 -1 -1 -1 -1 -1 -1 -1 -2 -2 -2 -3 -3 -2 -1 0 0 1 0 -0 -1 -2 -3 -2 -2 -3 -3 -4 -4 -4 -3 -3 -3 -3 -4 -4
7 6 5 4 3 2 2 1 0 -1 -1 -0 -1 -1 -1 -2 -2 -2 -3 -3 -3 -2 -1 -1 -0 0 0 -0 -1 -2 -3 -2 -2 -2 -3 -3 -4 -4 -3 -3 -3 -3 -4 -4
6 6 6 5 4 3 2 2 0 -0 -0 0 -0 -1 -1 -2 -2 -2 -3 -3 -3 -2 -2 -2 -1 -1 -0 -0 -1 -2 -3 -3 -2 -2 -3 -3 -3 -4 -4 -3 -3 -3 -3 -4
6 5 5 5 4 3 2 1 0 -0 -0 0 0 -0 -1 -2 -2 -2 -3 -3 -3 -3 -2 -2 -2 -1 -1 -1 -1 -2 -3 -3 -2 -2 -3 -3 -3 -3 -4 -3 -3 -3 -3 -3
5 5 5 5 4 3 2 1 0 -0 -0 0 0 -0 -1 -1 -2 -2 -2 -3 -3 -3 -3 -2 -2 -2 -1 -1 -1 -1 -2 -3 -3 -3 -3 -3 -3 -3 -3 -3 -3 -3 -3 -4
4 4 4 4 3 2 2 1 0 -0 -0 -0 -0 -0 -1 -1 -1 -2 -2 -3 -3 -4 -3 -3 -2 -2 -2 -1 -1 -1 -2 -3 -3 -3 -3 -3 -3 -3 -3 -3 -3 -4 -4 -4
4 4 3 3 2 2 1 1 0 -0 -0 -0 0 -0 -1 -1 -1 -1 -2 -3 -3 -3 -3 -2 -2 -2 -2 -2 -1 -2 -2 -3 -3 -3 -3 -3 -3 -3 -4 -4 -4 -4 -4 -5
3 3 3 2 2 2 1 1 0 0 -0 -0 0 0 -0 -0 -0 -0 -1 -2 -3 -3 -2 -2 -2 -2 -3 -2 -2 -2 -3 -3 -3 -3 -3 -3 -3 -3 -3 -4 -4 -4 -5 -5
1 2 2 2 2 1 1 1 0 0 0 0 0 1 0 -0 -0 -0 -0 -1 -2 -3 -3 -3 -3 -3 -3 -3 -3 -3 -4 -4 -4 -4 -3 -3 -3 -3 -3 -3 -4 -5 -5 -5
1 1 1 1 1 1 0 0 0 -0 0 0 0 0 -0 -0 -0 -0 -0 -1 -3 -4 -4 -5 -4 -4 -3 -3 -3 -3 -4 -5 -5 -4 -4 -4 -4 -4 -3 -3 -4 -5 -5 -5
1 1 1 1 1 1 0 -0 -0 -0 -0 0 1 -0 -1 -0 -0 -0 -1 -2 -4 -5 -5 -6 -5 -5 -4 -4 -3 -3 -4 -5 -5 -5 -5 -4 -4 -4 -4 -4 -4 -4 -5 -5
1 1 1 1 1 1 1 0 0 -0 -0 0 0 -1 -2 -1 -1 -2 -3 -4 -5 -5 -5 -6 -6 -6 -5 -4 -4 -4 -4 -4 -5 -5 -5 -5 -4 -4 -4 -4 -4 -4 -4 -5
1 1 1 1 2 2 1 1 0 -0 -1 -1 -1 -3 -3 -3 -4 -4 -4 -4 -4 -4 -5 -5 -6 -6 -6 -5 -5 -5 -4 -4 -4 -5 -5 -5 -5 -4 -4 -4 -4 -4 -4 -5
1 0 1 1 2 2 1 0 -0 -1 -2 -2 -3 -4 -4 -4 -5 -5 -4 -4 -3 -3 -4 -4 -5 -5 -5 -6 -6 -6 -5 -5 -4 -5 -5 -5 -5 -5 -5 -4 -4 -4 -4 -4
-0 -0 0 1 1 1 0 -1 -2 -2 -3 -3 -3 -4 -4 -4 -4 -4 -3 -3 -3 -3 -3 -3 -3 -4 -4 -4 -5 -6 -6 -6 -6 -6 -5 -5 -6 -6 -5 -5 -4 -4 -4 -4
1 0 0 1 0 -0 -1 -2 -2 -3 -3 -3 -3 -3 -4 -4 -4 -3 -3 -3 -3 -2 -2 -2 -3 -3 -3 -3 -4 -5 -6 -7 -7 -7 -6 -6 -6 -6 -6 -5 -5 -4 -4 -4
2 1 1 1 0 -0 -1 -2 -2 -2 -2 -2 -2 -2 -3 -3 -3 -3 -3 -3 -2 -2 -1 -1 -2 -3 -3 -3 -3 -4 -6 -7 -8 -8 -7 -7 -7 -7 -6 -6 -6 -5 -5 -5
1 1 1 1 0 -1 -1 -2 -2 -2 -2 -2 -2 -2 -2 -2 -2 -2 -2 -2 -2 -1 0 -0 -2 -2 -3 -3 -3 -4 -5 -7 -7 -8 -8 -8 -7 -7 -7 -7 -7 -6 -6 -6
1 0 0 0 -0 -1 -1 -2 -2 -1 -2 -2 -2 -2 -2 -2 -2 -1 -1 -1 -1 0 1 1 -0 -2 -2 -2 -3 -4 -5 -6 -7 -8 -8 -8 -8 -8 -8 -7 -7 -7 -7 -7
0 -1 -1 -1 -1 -1 -2 -2 -2 -1 -1 -1 -1 -1 -1 -1 -1 -1 -0 -0 0 1 2 2 1 -1 -2 -2 -3 -4 -5 -6 -7 -8 -8 -9 -9 -9 -8 -8 -8 -8 -8 -7
0 -0 -1 -1 -1 -1 -1 -1 -1 -1 -0 -0 -1 -1 -1 -1 -1 -1 -0 0 1 1 1 2 1 0 -1 -2 -2 -3 -4 -6 -7 -8 -8 -9 -9 -9 -9 -8 -8 -8 -8 -8
1 1 0 -0 0 -0 0 0 1 1 1 1 0 -0 -1 -2 -2 -1 -0 0 1 1 1 1 1 1 0 -0 -1 -1 -2 -4 -6 -6 -7 -8 -8 -8 -8 -8 -8 -8 -8 -8
2 2 1 1 1 1 1 2 2 2 2 2 1 0 -1 -2 -2 -1 -0 1 1 1 0 1 1 2 2 1 0 -1 -1 -3 -4 -6 -6 -7 -8 -8 -8 -8 -8 -8 -8 -8